Overview Statistics Trail Chart Weather Telemetry Raw packets
 

This is the latest recevied weather packets stored in our database for station/object KY4OP-13. If no packets are shown the sender has not sent any weather packets the latest 10 day(s).

<< 5 6 7 8 9 10 11 >>
Time Temp. Humidity Pressure Rain* Wind** Luminosity Snow
1788561883 22.78° C 97% 1015.3 hPa 0 mm - - -
1788561582 22.78° C 97% 1015.2 hPa 0 mm - - -
1788561281 22.78° C 97% 1015.5 hPa 0 mm - - -
1788560977 22.78° C 97% 1015.2 hPa 0 mm - - -
1788560673 22.78° C 96% 1015.2 hPa 0 mm - - -
1788560373 22.78° C 97% 1015.1 hPa 0 mm - - -
1788560067 22.78° C 97% 1015.2 hPa 0 mm - - -
1788559763 22.78° C 97% 1015.6 hPa 0 mm - - -
1788559462 22.78° C 97% 1016 hPa 0 mm - - -
1788559158 22.78° C 97% 1015.9 hPa 0 mm - - -
1788558853 22.78° C 98% 1016.1 hPa 0 mm - - -
1788558549 22.78° C 98% 1016.3 hPa 0 mm - - -
1788558244 22.78° C 98% 1016.2 hPa 0 mm - - -
1788557943 22.78° C 97% 1016.5 hPa 0 mm - - -
1788557637 22.78° C 97% 1016.7 hPa 0 mm - - -
1788557333 22.78° C 97% 1017.1 hPa 0 mm - - -
1788557027 23.33° C 96% 1017.4 hPa 1.78 mm - - -
1788556723 23.33° C 96% 1017.7 hPa 1.78 mm - - -
1788556417 23.33° C 95% 1017.4 hPa 1.27 mm - - -
1788556112 23.33° C 94% 1016.9 hPa 4.32 mm - - -
1788555806 23.89° C 92% 1016.9 hPa 3.05 mm - - -
1788555503 24.44° C 90% 1016.4 hPa 1.78 mm - - -
1788555198 25° C 87% 1016.6 hPa 0 mm - - -
1788554895 25.56° C 86% 1016.3 hPa 0 mm - - -
1788554591 26.11° C 85% 1016.3 hPa 0 mm - - -

* Rain latest hour (hover to see other rain measurements)
** Current wind speed in m/s (hover to see current wind gust speed)